Location: Unspecified
(35.3830°S, 0.0000°E)
Time: 10:23:59
(UTC+00:00)

Envisat - Visible Passes

Search period start: 14 October 2019 00:00
Search period end: 24 October 2019 00:00
Orbit: 764 x 766 km, 98.1° (Epoch: 14 October)

Date Brightness Start Highest point End Pass type
(mag) Time Alt. Az. Time Alt. Az. Time Alt. Az.
14 Oct 3.5 19:11:18 10° S 19:16:24 65° WSW 19:21:26 10° NNW visible
15 Oct 6.4 04:46:58 10° E 04:49:10 13° ESE 04:51:23 10° SE visible
15 Oct 3.2 18:34:37 10° SSE 18:39:39 53° E 18:44:38 10° N visible
15 Oct 6.0 20:15:05 10° SSW 20:18:10 16° WSW 20:21:14 10° WNW visible
16 Oct 4.7 19:37:06 10° S 19:41:46 36° WSW 19:46:23 10° NW visible
17 Oct 3.1 19:00:00 10° S 19:05:10 83° WSW 19:10:16 10° NNW visible
18 Oct 5.7 20:03:19 10° SSW 20:07:02 20° WSW 20:10:44 10° WNW visible
19 Oct 4.2 19:25:40 10° S 19:30:34 46° WSW 19:35:25 10° NW visible
20 Oct 3.0 18:48:45 10° SSE 18:53:55 77° ENE 18:59:00 10° N visible
20 Oct 6.3 20:30:36 10° SW 20:32:12 11° WSW 20:33:48 10° W visible
21 Oct 5.3 19:51:42 10° SSW 19:55:53 26° WSW 20:00:02 10° WNW visible
22 Oct 3.7 19:14:18 10° S 19:19:22 59° WSW 19:24:22 10° NNW visible
23 Oct 6.1 20:18:19 10° SSW 20:21:05 15° WSW 20:23:51 10° W visible
